Regional Weather Roundup
Issued by NWS

Home | Current Version | Previous Version | Graphics & Text | Print | Product List | Glossary On
Versions: 1 2 3 4 5 6 7 8 9 10 11 12 13 14 15 16 17 18 19 20 21 22 23 24 25 26 27 28 29 30 31 32 33 34 35 36 37 38 39 40 41 42 43 44 45 46 47 48 49 50
000
ASUS43 KLMK 182310
RWRKY
KENTUCKY REGIONAL WEATHER ROUNDUP
NATIONAL WEATHER SERVICE LOUISVILLE KY
700 PM EDT SAT APR 18 2015

NOTE "FAIR" INDICATES FEW OR NO CLOUDS BELOW 12,000 FEET
WITH NO SIGNIFICANT WEATHER AND/OR OBSTRUCTIONS TO VISIBILITY.

KYZ001>023-026-027-061>063-070>075-190000-
WESTERN AND SOUTH CENTRAL KENTUCKY

CITY           SKY/WX    TMP DP  RH WIND       PRES   REMARKS
PADUCAH        PTSUNNY   78  59  51 E5        29.86S
HENDERSON      PTSUNNY   73  55  53 N5        29.89R
OWENSBORO      PTSUNNY   79  52  38 SE9       29.89S
HOPKINSVILLE   CLOUDY    77  59  53 E5        29.88R
BOWLING GREEN  PTSUNNY   77  60  55 E3        29.89S
GLASGOW        PTSUNNY   76  54  46 NE3       29.89S
$$

KYZ024-025-028>034-038-045-046-053-190000-
NORTH CENTRAL KENTUCKY

CITY           SKY/WX    TMP DP  RH WIND       PRES   REMARKS
LOUISVILLE/SDF PTSUNNY   78  46  32 E6        29.91F
LOUISVILLE/LOU PTSUNNY   78  45  30 NE12      29.92F
FORT KNOX      CLOUDY    76  47  36 NE10      29.89F
$$

KYZ035>037-039>044-047>052-055>060-089>105-190000-
NORTHEAST KENTUCKY

CITY           SKY/WX    TMP DP  RH WIND       PRES   REMARKS
LEXINGTON      MOSUNNY   73  50  44 NE8       29.94F
COVINGTON      PTSUNNY   76  44  32 E15       29.96F
FRANKFORT      PTSUNNY   75  46  35 E7        29.92F
$$

KYZ054-064>069-076>088-106>120-190000-
SOUTHEAST KENTUCKY

CITY           SKY/WX    TMP DP  RH WIND       PRES   REMARKS
JACKSON        MOSUNNY   78  46  32 CALM      29.94S
LONDON         PTSUNNY   80  45  28 NE5       29.91F
SOMERSET       MOSUNNY   73  52  46 NE10      29.91F
MIDDLESBORO    CLOUDY    79  53  40 CALM      29.91F
MONTICELLO     MOCLDY    79  56  45 N7        29.92F
$$



USA.gov is the U.S. government's official web portal to all federal, state and local government web resources and services.